Time,TemperatureF,DewpointF,PressureIn,WindDirection,WindDirectionDegrees,WindSpeedMPH,WindSpeedGustMPH,Humidity,HourlyPrecipIn,Conditions,Clouds,dailyrainin,SolarRadiationWatts/m^2,SoftwareType,DateUTC
2013-01-30 00:02:00,37.0,35.0,-100.00,SSW,206,2.0,24.0,94,0.06,,,0.25,106.000000,,2013-01-30 00:02:00,
2013-01-30 00:33:00,35.0,35.0,-100.00,West,264,1.0,6.0,99,0.07,,,0.32,51.000000,,2013-01-30 00:33:00,
2013-01-30 00:43:00,35.0,35.0,-100.00,West,264,1.0,6.0,99,0.07,,,0.32,51.000000,,2013-01-30 00:43:00,
2013-01-30 00:52:00,35.0,35.0,-100.00,West,264,1.0,6.0,99,0.07,,,0.32,51.000000,,2013-01-30 00:52:00,
2013-01-30 01:01:00,35.0,35.0,-100.00,West,264,1.0,6.0,99,0.07,,,0.32,51.000000,,2013-01-30 01:01:00,
2013-01-30 01:32:00,36.0,36.0,-100.00,WSW,238,2.0,11.0,99,0.05,,,0.37,20.000000,,2013-01-30 01:32:00,
2013-01-30 01:42:00,36.0,36.0,-100.00,WSW,238,2.0,11.0,99,0.05,,,0.37,20.000000,,2013-01-30 01:42:00,
2013-01-30 01:52:00,36.0,36.0,-100.00,WSW,238,2.0,11.0,99,0.05,,,0.37,20.000000,,2013-01-30 01:52:00,
2013-01-30 02:02:00,36.0,36.0,-100.00,WSW,238,2.0,11.0,99,0.05,,,0.37,20.000000,,2013-01-30 02:02:00,
2013-01-30 02:33:00,36.0,36.0,-100.00,SW,231,0.0,61.0,100,0.08,,,0.45,0.000000,,2013-01-30 02:33:00,
2013-01-30 02:42:00,36.0,36.0,-100.00,SW,231,0.0,61.0,100,0.08,,,0.45,0.000000,,2013-01-30 02:42:00,
2013-01-30 02:53:00,36.0,36.0,-100.00,SW,231,0.0,61.0,100,0.08,,,0.45,0.000000,,2013-01-30 02:53:00,
2013-01-30 03:02:00,36.0,36.0,-100.00,SW,231,0.0,61.0,100,0.08,,,0.45,0.000000,,2013-01-30 03:02:00,
2013-01-30 03:32:00,34.0,34.0,-100.00,SSE,163,0.0,7.0,100,0.08,,,0.53,0.000000,,2013-01-30 03:32:00,
2013-01-30 03:42:00,34.0,34.0,-100.00,SSE,163,0.0,7.0,100,0.08,,,0.53,0.000000,,2013-01-30 03:42:00,
2013-01-30 03:52:00,34.0,34.0,-100.00,SSE,163,0.0,7.0,100,0.08,,,0.53,0.000000,,2013-01-30 03:52:00,
2013-01-30 04:01:00,34.0,34.0,-100.00,SSE,163,0.0,7.0,100,0.08,,,0.53,0.000000,,2013-01-30 04:01:00,
2013-01-30 04:32:00,34.0,34.0,-100.00,South,187,0.0,0.0,100,0.09,,,0.62,0.000000,,2013-01-30 04:32:00,
2013-01-30 04:42:00,34.0,34.0,-100.00,South,187,0.0,0.0,100,0.09,,,0.62,0.000000,,2013-01-30 04:42:00,
2013-01-30 04:52:00,34.0,34.0,-100.00,South,187,0.0,0.0,100,0.09,,,0.62,0.000000,,2013-01-30 04:52:00,
2013-01-30 05:03:00,34.0,34.0,-100.00,South,187,0.0,0.0,100,0.09,,,0.62,0.000000,,2013-01-30 05:03:00,
2013-01-30 05:32:00,34.0,34.0,-100.00,SSW,197,0.0,0.0,100,0.07,,,0.69,0.000000,,2013-01-30 05:32:00,
2013-01-30 05:43:00,34.0,34.0,-100.00,SSW,197,0.0,0.0,100,0.07,,,0.69,0.000000,,2013-01-30 05:43:00,
2013-01-30 05:52:00,34.0,34.0,-100.00,SSW,197,0.0,0.0,100,0.07,,,0.69,0.000000,,2013-01-30 05:52:00,
2013-01-30 06:02:00,34.0,34.0,-100.00,SSW,197,0.0,0.0,100,0.07,,,0.69,0.000000,,2013-01-30 06:02:00,
2013-01-30 06:32:00,34.0,34.0,-100.00,SSW,213,0.0,0.0,100,0.08,,,0.77,0.000000,,2013-01-30 06:32:00,
2013-01-30 06:42:00,34.0,34.0,-100.00,SSW,213,0.0,0.0,100,0.08,,,0.77,0.000000,,2013-01-30 06:42:00,
2013-01-30 06:52:00,34.0,34.0,-100.00,SSW,213,0.0,0.0,100,0.08,,,0.77,0.000000,,2013-01-30 06:52:00,
2013-01-30 07:01:00,34.0,34.0,-100.00,SSW,213,0.0,0.0,100,0.08,,,0.77,0.000000,,2013-01-30 07:01:00,
2013-01-30 07:32:00,35.0,35.0,-100.00,SW,232,0.0,0.0,100,0.06,,,0.83,0.000000,,2013-01-30 07:32:00,
2013-01-30 07:42:00,35.0,35.0,-100.00,SW,232,0.0,0.0,100,0.06,,,0.83,0.000000,,2013-01-30 07:42:00,
2013-01-30 07:52:00,35.0,35.0,-100.00,SW,232,0.0,0.0,100,0.06,,,0.83,0.000000,,2013-01-30 07:52:00,
2013-01-30 08:01:00,35.0,35.0,-100.00,SW,232,0.0,0.0,100,0.06,,,0.83,0.000000,,2013-01-30 08:01:00,
2013-01-30 08:32:00,35.0,35.0,-100.00,West,262,0.0,0.0,100,0.06,,,0.89,0.000000,,2013-01-30 08:32:00,
2013-01-30 08:42:00,35.0,35.0,-100.00,West,262,0.0,0.0,100,0.06,,,0.89,0.000000,,2013-01-30 08:42:00,
2013-01-30 08:52:00,35.0,35.0,-100.00,West,262,0.0,0.0,100,0.06,,,0.89,0.000000,,2013-01-30 08:52:00,
2013-01-30 09:01:00,35.0,35.0,-100.00,West,262,0.0,0.0,100,0.06,,,0.89,0.000000,,2013-01-30 09:01:00,
2013-01-30 09:32:00,33.0,33.0,-100.00,WSW,239,0.0,0.0,100,0.06,,,0.95,0.000000,,2013-01-30 09:32:00,
2013-01-30 09:42:00,33.0,33.0,-100.00,WSW,239,0.0,0.0,100,0.06,,,0.95,0.000000,,2013-01-30 09:42:00,
2013-01-30 09:52:00,33.0,33.0,-100.00,WSW,239,0.0,0.0,100,0.06,,,0.95,0.000000,,2013-01-30 09:52:00,
2013-01-30 10:01:00,33.0,33.0,-100.00,WSW,239,0.0,0.0,100,0.06,,,0.95,0.000000,,2013-01-30 10:01:00,
2013-01-30 10:32:00,33.0,33.0,-100.00,WSW,251,0.0,0.0,100,0.05,,,1.00,0.000000,,2013-01-30 10:32:00,
2013-01-30 10:42:00,33.0,33.0,-100.00,WSW,251,0.0,0.0,100,0.05,,,1.00,0.000000,,2013-01-30 10:42:00,
2013-01-30 10:52:00,33.0,33.0,-100.00,WSW,251,0.0,0.0,100,0.05,,,1.00,0.000000,,2013-01-30 10:52:00,
2013-01-30 11:02:00,33.0,33.0,-100.00,WSW,251,0.0,0.0,100,0.05,,,1.00,0.000000,,2013-01-30 11:02:00,
2013-01-30 11:33:00,33.0,33.0,-100.00,West,267,0.0,0.0,100,0.06,,,1.06,0.000000,,2013-01-30 11:33:00,
2013-01-30 11:42:00,33.0,33.0,-100.00,West,267,0.0,0.0,100,0.06,,,1.06,0.000000,,2013-01-30 11:42:00,
2013-01-30 11:52:00,33.0,33.0,-100.00,West,267,0.0,0.0,100,0.06,,,1.06,0.000000,,2013-01-30 11:52:00,
2013-01-30 12:01:00,33.0,33.0,-100.00,West,267,0.0,0.0,100,0.06,,,1.06,0.000000,,2013-01-30 12:01:00,
2013-01-30 12:33:00,33.0,33.0,-100.00,WSW,257,0.0,0.0,100,0.07,,,1.13,0.000000,,2013-01-30 12:33:00,
2013-01-30 12:43:00,33.0,33.0,-100.00,WSW,257,0.0,0.0,100,0.07,,,1.13,0.000000,,2013-01-30 12:43:00,
2013-01-30 13:02:00,33.0,33.0,-100.00,WSW,257,0.0,0.0,100,0.07,,,1.13,0.000000,,2013-01-30 13:02:00,
2013-01-30 13:33:00,35.0,35.0,-100.00,WSW,246,0.0,0.0,100,0.05,,,1.18,0.000000,,2013-01-30 13:33:00,
2013-01-30 13:43:00,35.0,35.0,-100.00,WSW,246,0.0,0.0,100,0.05,,,1.18,0.000000,,2013-01-30 13:43:00,
2013-01-30 13:53:00,35.0,35.0,-100.00,WSW,246,0.0,0.0,100,0.05,,,1.18,0.000000,,2013-01-30 13:53:00,
2013-01-30 14:02:00,35.0,35.0,-100.00,WSW,246,0.0,0.0,100,0.05,,,1.18,0.000000,,2013-01-30 14:02:00,
2013-01-30 14:33:00,34.0,34.0,-100.00,WSW,245,0.0,0.0,100,0.06,,,1.24,0.000000,,2013-01-30 14:33:00,
2013-01-30 14:43:00,34.0,34.0,-100.00,WSW,245,0.0,0.0,100,0.06,,,1.24,0.000000,,2013-01-30 14:43:00,
2013-01-30 14:53:00,34.0,34.0,-100.00,WSW,245,0.0,0.0,100,0.06,,,1.24,0.000000,,2013-01-30 14:53:00,
2013-01-30 15:02:00,34.0,34.0,-100.00,WSW,245,0.0,0.0,100,0.06,,,1.24,0.000000,,2013-01-30 15:02:00,
2013-01-30 15:33:00,36.0,36.0,-100.00,WSW,257,0.0,0.0,100,0.07,,,1.31,0.000000,,2013-01-30 15:33:00,
2013-01-30 15:43:00,36.0,36.0,-100.00,WSW,257,0.0,0.0,100,0.07,,,1.31,0.000000,,2013-01-30 15:43:00,
2013-01-30 15:53:00,36.0,36.0,-100.00,WSW,257,0.0,0.0,100,0.07,,,1.31,0.000000,,2013-01-30 15:53:00,
2013-01-30 16:02:00,36.0,36.0,-100.00,WSW,257,0.0,0.0,100,0.07,,,1.31,0.000000,,2013-01-30 16:02:00,
2013-01-30 16:33:00,35.0,35.0,-100.00,West,261,0.0,23.0,100,0.07,,,-99.99,1.000000,,2013-01-30 16:33:00,
2013-01-30 16:42:00,35.0,35.0,-100.00,West,261,0.0,23.0,100,0.07,,,-99.99,1.000000,,2013-01-30 16:42:00,
2013-01-30 16:52:00,35.0,35.0,-100.00,West,261,0.0,23.0,100,0.07,,,-99.99,1.000000,,2013-01-30 16:52:00,
2013-01-30 17:02:00,35.0,35.0,-100.00,West,261,0.0,23.0,100,0.07,,,-99.99,1.000000,,2013-01-30 17:02:00,
2013-01-30 17:33:00,37.0,37.0,-100.00,WSW,249,20.0,-999.0,100,0.07,,,1.45,18.000000,,2013-01-30 17:33:00,
2013-01-30 17:43:00,37.0,37.0,-100.00,WSW,249,20.0,-999.0,100,0.07,,,1.45,18.000000,,2013-01-30 17:43:00,
2013-01-30 17:53:00,37.0,37.0,-100.00,WSW,249,20.0,-999.0,100,0.07,,,1.45,18.000000,,2013-01-30 17:53:00,
2013-01-30 18:02:00,37.0,37.0,-100.00,WSW,249,20.0,-999.0,100,0.07,,,1.45,18.000000,,2013-01-30 18:02:00,
2013-01-30 18:33:00,36.0,36.0,-100.00,WSW,252,14.0,-999.0,100,0.09,,,1.54,59.000000,,2013-01-30 18:33:00,
2013-01-30 18:43:00,36.0,36.0,-100.00,WSW,252,14.0,-999.0,100,0.09,,,1.54,59.000000,,2013-01-30 18:43:00,
2013-01-30 18:52:00,36.0,36.0,-100.00,WSW,252,14.0,-999.0,100,0.09,,,1.54,59.000000,,2013-01-30 18:52:00,
2013-01-30 19:02:00,36.0,36.0,-100.00,WSW,252,14.0,-999.0,100,0.09,,,1.54,59.000000,,2013-01-30 19:02:00,
2013-01-30 19:33:00,38.0,38.0,-100.00,West,266,52.0,-999.0,100,0.08,,,1.62,83.000000,,2013-01-30 19:33:00,
2013-01-30 19:43:00,38.0,38.0,-100.00,West,266,52.0,-999.0,100,0.08,,,1.62,83.000000,,2013-01-30 19:43:00,
2013-01-30 19:53:00,38.0,38.0,-100.00,West,266,52.0,-999.0,100,0.08,,,1.62,83.000000,,2013-01-30 19:53:00,
2013-01-30 20:02:00,38.0,38.0,-100.00,West,266,52.0,-999.0,100,0.08,,,1.62,83.000000,,2013-01-30 20:02:00,
2013-01-30 20:33:00,37.0,37.0,-100.00,WSW,251,20.0,-999.0,100,0.10,,,1.72,80.000000,,2013-01-30 20:33:00,
2013-01-30 20:42:00,37.0,37.0,-100.00,WSW,251,20.0,-999.0,100,0.10,,,1.72,80.000000,,2013-01-30 20:42:00,
2013-01-30 20:53:00,37.0,37.0,-100.00,WSW,251,20.0,-999.0,100,0.10,,,1.72,80.000000,,2013-01-30 20:53:00,
2013-01-30 21:03:00,37.0,37.0,-100.00,WSW,251,20.0,-999.0,100,0.10,,,1.72,80.000000,,2013-01-30 21:03:00,
2013-01-30 21:32:00,37.0,37.0,-100.00,WSW,253,13.0,-999.0,100,0.09,,,1.72,76.000000,,2013-01-30 21:32:00,
2013-01-30 21:43:00,37.0,37.0,-100.00,WSW,253,13.0,-999.0,100,0.09,,,1.72,76.000000,,2013-01-30 21:43:00,
2013-01-30 21:52:00,37.0,37.0,-100.00,WSW,253,13.0,-999.0,100,0.09,,,1.72,76.000000,,2013-01-30 21:52:00,
2013-01-30 22:02:00,37.0,37.0,-100.00,WSW,253,13.0,-999.0,100,0.09,,,1.72,76.000000,,2013-01-30 22:02:00,
2013-01-30 22:33:00,39.0,39.0,-100.00,WSW,243,0.0,168.0,100,0.08,,,1.70,61.000000,,2013-01-30 22:33:00,
2013-01-30 22:42:00,39.0,39.0,-100.00,WSW,243,0.0,168.0,100,0.08,,,1.70,61.000000,,2013-01-30 22:42:00,
2013-01-30 22:52:00,39.0,39.0,-100.00,WSW,243,0.0,168.0,100,0.08,,,1.70,61.000000,,2013-01-30 22:52:00,
2013-01-30 23:02:00,39.0,39.0,-100.00,WSW,243,0.0,168.0,100,0.08,,,1.70,61.000000,,2013-01-30 23:02:00,
2013-01-30 23:33:00,39.0,39.0,-100.00,WSW,246,0.0,0.0,100,0.09,,,1.73,47.000000,,2013-01-30 23:33:00,
2013-01-30 23:42:00,39.0,39.0,-100.00,WSW,246,0.0,0.0,100,0.09,,,1.73,47.000000,,2013-01-30 23:42:00,
2013-01-30 23:52:00,39.0,39.0,-100.00,WSW,246,0.0,0.0,100,0.09,,,1.73,47.000000,,2013-01-30 23:52:00,